Regional Weather Roundup
Issued by NWS Cleveland, OH

Home | Current Version | Previous Version | Text Only | Print | Product List | Glossary Off
Versions: 1 2 3 4 5 6 7 8 9 10 11 12 13 14 15 16 17 18 19 20 21 22 23 24 25 26 27 28 29 30 31 32 33 34 35 36 37 38 39 40 41 42 43 44 45 46 47 48 49 50

000
ASUS41 KCLE 061602
RWRCLE
OHIO REGIONAL WEATHER ROUNDUP
NATIONAL WEATHER SERVICE CLEVELAND, OH
1200 PM EDT MON JUL 06 2015

NOTE: "FAIR" INDICATES FEW OR NO CLOUDS BELOW 12,000 FEET WITH NO
SIGNIFICANT WEATHER AND/OR OBSTRUCTIONS TO VISIBILITY.

OHZ001>008-015>018-024>027-034-035-043-044-061700-
   NORTHWEST OHIO

CITY           SKY/WX    TMP DP  RH WIND       PRES   REMARKS
DEFIANCE       FAIR      79  62  56 SW8       30.06F
FINDLAY        FAIR      77  61  57 VRB3      30.07S
TOLEDO EXPRESS FAIR      79  62  56 SW5       30.05F
TOLEDO EXEC    FAIR      79  60  52 SW6       30.07F
LIMA           FAIR      77  61  57 SW5       30.08F
$$

OHZ009>014-019>023-028>033-038-089-061700-
   NORTHEAST OHIO

CITY           SKY/WX    TMP DP  RH WIND       PRES   REMARKS
CLE-HOPKINS    FAIR      81  60  48 VRB3      30.08F
CLE-LAKEFRONT  FAIR      75  64  68 NW5       30.06S
CUY CO. ARPT   MOSUNNY   81  61  50 NW9       30.08S
LORAIN-ELYRIA  FAIR      79  63  57 SW5       30.08S
ASHTABULA      FAIR      79  66  64 N3        30.09S
AKRON-CANTON   PTSUNNY   81  65  58 VRB5      30.08S
WOOSTER        FAIR      77  67  71 SW5       30.09S
MANSFIELD      FAIR      79  62  56 VRB5      30.10S
YOUNGSTOWN     FAIR      82  67  60 NE3       30.08F
$$

OHZ042-051>053-060>062-070>072-077>081-061700-
  SOUTHWEST OHIO

CITY           SKY/WX    TMP DP  RH WIND       PRES   REMARKS
CINC-COVINGTON FAIR      78  64  61 CALM      30.10F
CINC-LUNKEN    FAIR      79  64  60 W8        30.10F
HAMILTON       FAIR      79  66  64 VRB6      30.10F
DAYTON         FAIR      79  63  57 VRB3      30.10F
WRIGHT-PAT AFB FAIR      78  63  59 VRB5      30.09S
DAYTON GENERAL FAIR      77  61  57 VRB6      30.09F
WILMINGTON     FAIR      78  63  59 W8        30.10S
$$

OHZ036-037-039>041-045>050-054>059-063>069-073>076-082>088-061700-
  CENTRAL AND SOUTHEAST OHIO

CITY           SKY/WX    TMP DP  RH WIND       PRES   REMARKS
COLUMBUS       FAIR      80  63  55 VRB5      30.07S
OSU AIRPORT    FAIR      79  63  57 E3        30.08S
BOLTON FIELD   SUNNY     79  64  61 S3        30.09S
RICKENBACK AFB NOT AVBL
NEWARK         FAIR      75  66  73 CALM      30.08S
MARION         FAIR      79  62  56 MISG      30.09R
LANCASTER      FAIR      80  66  62 CALM      30.09F
ZANESVILLE     NOT AVBL
NEW PHILLY     FAIR      77  68  73 CALM      30.08F
$$


USA.gov is the U.S. government's official web portal to all federal, state and local government web resources and services.